TimePST,TemperatureF,Dew PointF,Humidity,Sea Level PressureIn,VisibilityMPH,Wind Direction,Wind SpeedMPH,Gust SpeedMPH,PrecipitationIn,Events,Conditions,WindDirDegrees,DateUTC
12:53 AM,46.9,34.0,61,30.04,10.0,South,10.4,18.4,0.00,Rain,Light Rain,170,2013-02-25 08:53:00
1:23 AM,46.4,35.6,66,30.02,10.0,South,8.1,-,0.00,Rain,Light Rain,170,2013-02-25 09:23:00
1:53 AM,46.0,37.0,71,30.02,10.0,South,8.1,20.7,0.01,Rain,Light Rain,190,2013-02-25 09:53:00
2:53 AM,44.1,39.0,82,30.05,10.0,Variable,4.6,-,0.01,,Overcast,0,2013-02-25 10:53:00
3:32 AM,44.6,39.2,81,30.07,10.0,Variable,3.5,-,N/A,,Overcast,0,2013-02-25 11:32:00
3:38 AM,44.6,39.2,81,30.08,10.0,Variable,3.5,-,N/A,,Overcast,0,2013-02-25 11:38:00
3:45 AM,44.6,39.2,81,30.08,10.0,Calm,Calm,-,N/A,,Overcast,0,2013-02-25 11:45:00
3:53 AM,44.1,39.0,82,30.09,10.0,SW,4.6,-,N/A,,Overcast,230,2013-02-25 11:53:00
4:02 AM,44.6,39.2,81,30.09,10.0,SW,6.9,-,N/A,,Overcast,220,2013-02-25 12:02:00
4:09 AM,44.6,39.2,81,30.10,9.0,WSW,5.8,-,0.01,Rain,Light Rain,240,2013-02-25 12:09:00
4:38 AM,42.8,39.2,87,30.11,10.0,SW,4.6,-,0.02,,Overcast,230,2013-02-25 12:38:00
4:53 AM,43.0,37.9,82,30.12,10.0,WSW,5.8,-,0.02,,Overcast,250,2013-02-25 12:53:00
5:53 AM,43.0,37.9,82,30.15,10.0,WSW,6.9,-,0.01,,Overcast,250,2013-02-25 13:53:00
6:13 AM,42.8,37.4,81,30.16,8.0,West,8.1,-,0.02,Rain,Light Rain,260,2013-02-25 14:13:00
6:23 AM,42.8,37.4,81,30.16,10.0,West,8.1,-,0.02,,Overcast,270,2013-02-25 14:23:00
6:53 AM,41.0,36.0,82,30.17,10.0,West,5.8,-,0.02,Rain,Light Rain,260,2013-02-25 14:53:00
7:53 AM,42.1,37.0,82,30.20,10.0,Calm,Calm,-,0.01,,Overcast,0,2013-02-25 15:53:00
8:53 AM,43.0,37.0,80,30.21,10.0,SW,5.8,-,0.00,,Overcast,230,2013-02-25 16:53:00
10:53 AM,45.0,36.0,71,30.24,10.0,SW,4.6,-,N/A,,Overcast,230,2013-02-25 18:53:00
11:53 AM,46.9,37.0,68,30.25,10.0,SW,6.9,-,0.00,,Overcast,230,2013-02-25 19:53:00
12:53 PM,48.9,33.1,54,30.24,10.0,West,12.7,-,N/A,,Overcast,260,2013-02-25 20:53:00
1:53 PM,50.0,37.0,61,30.25,10.0,West,10.4,23.0,0.00,,Mostly Cloudy,270,2013-02-25 21:53:00
2:53 PM,48.0,32.0,54,30.27,10.0,NW,11.5,21.9,0.00,Rain,Light Rain,320,2013-02-25 22:53:00
3:53 PM,46.0,33.1,61,30.29,10.0,WNW,11.5,-,0.00,,Overcast,290,2013-02-25 23:53:00
4:53 PM,43.0,36.0,76,30.30,10.0,West,6.9,-,0.01,,Overcast,260,2013-02-26 00:53:00
5:53 PM,42.1,34.0,73,30.31,10.0,WNW,8.1,-,N/A,,Mostly Cloudy,300,2013-02-26 01:53:00
6:53 PM,41.0,34.0,76,30.33,10.0,West,4.6,-,N/A,,Mostly Cloudy,260,2013-02-26 02:53:00
7:53 PM,39.0,34.0,82,30.35,10.0,Calm,Calm,-,N/A,,Partly Cloudy,0,2013-02-26 03:53:00
8:53 PM,36.0,32.0,86,30.36,10.0,Calm,Calm,-,N/A,,Scattered Clouds,0,2013-02-26 04:53:00
9:53 PM,36.0,33.1,89,30.38,10.0,Calm,Calm,-,N/A,,Partly Cloudy,0,2013-02-26 05:53:00
10:53 PM,37.9,34.0,86,30.38,10.0,Calm,Calm,-,N/A,,Overcast,0,2013-02-26 06:53:00
11:53 PM,39.9,35.1,83,30.40,10.0,Calm,Calm,-,N/A,,Overcast,0,2013-02-26 07:53:00